M I D A S
Marine Information and Data Acquisition System
Tripno 1246 of the Zeeleeuw from 2007-04-17 08:41:57 to 2007-04-17 12:48:01
Back to CruiseResearch ActivitiesStationsMapUnderway DataData graphs

EquipmentUnitsComments
TimeDGPSUTC
LatitudeDGPSDM.mWGS84
LongitudeDGPSDM.mWGS84
SpeedMeteo Stationm/sRelative wind speed
DirectionMeteo StationdegRelative wind direction
TemperatureMeteo Stationdeg CelciusAir temperature
PressureMeteo StationPaAtmospheric pressure
HumidityMeteo Station%Relative humidity
Missing or incorrect values are displayed as -999
Metereological data collected by the RV Zeeleeuw from 2007-04-17 08:44:07 to 2007-04-17 13:00:31
Time Latitude Longitude Speed Direction Temperature Pressure Humidity
2007-04-17 08:45 51°13.613 2°56.055 -999 -999 -999 -999 -999
2007-04-17 08:46 51°13.638 2°55.97 -999 -999 -999 -999 -999
2007-04-17 08:47 51°13.668 2°55.88 -999 -999 -999 -999 -999
2007-04-17 08:48 51°13.691 2°55.8 -999 -999 -999 -999 -999
2007-04-17 08:49 51°13.706 2°55.742 -999 -999 -999 -999 -999
2007-04-17 08:50 51°13.706 2°55.743 -999 -999 -999 -999 -999
2007-04-17 08:51 51°13.702 2°55.723 -999 -999 -999 -999 -999
2007-04-17 08:52 51°13.718 2°55.743 -999 -999 -999 -999 -999
2007-04-17 08:53 51°13.707 2°55.743 -999 -999 -999 -999 -999
2007-04-17 08:54 51°13.738 2°55.719 -999 -999 -999 -999 -999
2007-04-17 08:55 51°13.831 2°55.638 -999 -999 -999 -999 -999
2007-04-17 08:56 51°13.949 2°55.548 -999 -999 -999 -999 -999
2007-04-17 08:57 51°14.078 2°55.452 -999 -999 -999 -999 -999
2007-04-17 08:58 51°14.202 2°55.344 -999 -999 -999 -999 -999
2007-04-17 08:59 51°14.315 2°55.155 -999 -999 -999 -999 -999
2007-04-17 09:00 51°14.419 2°54.873 -999 -999 -999 -999 -999
2007-04-17 09:01 51°14.511 2°54.549 -999 -999 -999 -999 -999
2007-04-17 09:02 51°14.583 2°54.204 -999 -999 -999 -999 -999
2007-04-17 09:03 51°14.629 2°53.851 -999 -999 -999 -999 -999
2007-04-17 09:04 51°14.649 2°53.494 -999 -999 -999 -999 -999
2007-04-17 09:05 51°14.65 2°53.131 -999 -999 -999 -999 -999
2007-04-17 09:06 51°14.652 2°52.765 -999 -999 -999 -999 -999
2007-04-17 09:07 51°14.619 2°52.392 -999 -999 -999 -999 -999
2007-04-17 09:08 51°14.535 2°52.038 -999 -999 -999 -999 -999
2007-04-17 09:09 51°14.446 2°51.684 -999 -999 -999 -999 -999
2007-04-17 09:10 51°14.36 2°51.327 -999 -999 -999 -999 -999
2007-04-17 09:11 51°14.274 2°50.969 -999 -999 -999 -999 -999
2007-04-17 09:12 51°14.186 2°50.61 -999 -999 -999 -999 -999
2007-04-17 09:13 51°14.104 2°50.297 -999 -999 -999 -999 -999
2007-04-17 09:14 51°14.016 2°50.205 -999 -999 -999 -999 -999
2007-04-17 09:15 51°13.973 2°50.146 -999 -999 -999 -999 -999
2007-04-17 09:16 51°13.939 2°50.082 -999 -999 -999 -999 -999
2007-04-17 09:17 51°13.919 2°49.984 -999 -999 -999 -999 -999
2007-04-17 09:18 51°13.922 2°49.865 -999 -999 -999 -999 -999
2007-04-17 09:19 51°13.923 2°49.742 -999 -999 -999 -999 -999
2007-04-17 09:20 51°13.913 2°49.64 -999 -999 -999 -999 -999
2007-04-17 09:21 51°13.9 2°49.559 -999 -999 -999 -999 -999
2007-04-17 09:22 51°13.882 2°49.474 -999 -999 -999 -999 -999
2007-04-17 09:23 51°13.863 2°49.385 -999 -999 -999 -999 -999
2007-04-17 09:24 51°13.842 2°49.302 -999 -999 -999 -999 -999
2007-04-17 09:25 51°13.816 2°49.223 -999 -999 -999 -999 -999
2007-04-17 09:26 51°13.787 2°49.144 -999 -999 -999 -999 -999
2007-04-17 09:27 51°13.758 2°49.064 -999 -999 -999 -999 -999
2007-04-17 09:28 51°13.733 2°48.985 -999 -999 -999 -999 -999
2007-04-17 09:29 51°13.709 2°48.906 -999 -999 -999 -999 -999
2007-04-17 09:30 51°13.685 2°48.827 -999 -999 -999 -999 -999
2007-04-17 09:31 51°13.659 2°48.749 -999 -999 -999 -999 -999
2007-04-17 09:32 51°13.631 2°48.672 -999 -999 -999 -999 -999
2007-04-17 09:33 51°13.599 2°48.597 -999 -999 -999 -999 -999
2007-04-17 09:34 51°13.565 2°48.525 -999 -999 -999 -999 -999
2007-04-17 09:35 51°13.532 2°48.451 -999 -999 -999 -999 -999
2007-04-17 09:36 51°13.503 2°48.377 -999 -999 -999 -999 -999
2007-04-17 09:37 51°13.476 2°48.302 -999 -999 -999 -999 -999
2007-04-17 09:38 51°13.454 2°48.225 -999 -999 -999 -999 -999
2007-04-17 09:39 51°13.433 2°48.149 -999 -999 -999 -999 -999
2007-04-17 09:40 51°13.414 2°48.073 -999 -999 -999 -999 -999
2007-04-17 09:41 51°13.398 2°47.997 -999 -999 -999 -999 -999
2007-04-17 09:42 51°13.389 2°47.926 -999 -999 -999 -999 -999
2007-04-17 09:43 51°13.383 2°47.859 -999 -999 -999 -999 -999
2007-04-17 09:44 51°13.385 2°47.802 -999 -999 -999 -999 -999
2007-04-17 09:45 51°13.386 2°47.76 -999 -999 -999 -999 -999
2007-04-17 09:46 51°13.38 2°47.727 -999 -999 -999 -999 -999
2007-04-17 09:47 51°13.371 2°47.701 -999 -999 -999 -999 -999
2007-04-17 09:48 51°13.373 2°47.663 -999 -999 -999 -999 -999
2007-04-17 09:49 51°13.416 2°47.675 -999 -999 -999 -999 -999
2007-04-17 09:50 51°13.426 2°47.829 -999 -999 -999 -999 -999
2007-04-17 09:51 51°13.457 2°48.065 -999 -999 -999 -999 -999
2007-04-17 09:52 51°13.433 2°48.173 -999 -999 -999 -999 -999
2007-04-17 09:53 51°13.417 2°48.172 -999 -999 -999 -999 -999
2007-04-17 09:54 51°13.403 2°48.162 -999 -999 -999 -999 -999
2007-04-17 09:55 51°13.386 2°48.152 -999 -999 -999 -999 -999
2007-04-17 09:56 51°13.369 2°48.145 -999 -999 -999 -999 -999
2007-04-17 09:57 51°13.348 2°48.151 -999 -999 -999 -999 -999
2007-04-17 09:58 51°13.336 2°48.21 -999 -999 -999 -999 -999
2007-04-17 09:59 51°13.38 2°48.346 -999 -999 -999 -999 -999
2007-04-17 10:00 51°13.483 2°48.605 -999 -999 -999 -999 -999
2007-04-17 10:01 51°13.603 2°48.877 -999 -999 -999 -999 -999
2007-04-17 10:02 51°13.722 2°49.151 -999 -999 -999 -999 -999
2007-04-17 10:03 51°13.842 2°49.427 -999 -999 -999 -999 -999
2007-04-17 10:04 51°13.961 2°49.699 -999 -999 -999 -999 -999
2007-04-17 10:05 51°14.079 2°49.973 -999 -999 -999 -999 -999
2007-04-17 10:06 51°14.198 2°50.25 -999 -999 -999 -999 -999
2007-04-17 10:07 51°14.316 2°50.526 -999 -999 -999 -999 -999
2007-04-17 10:08 51°14.38 2°50.7 -999 -999 -999 -999 -999
2007-04-17 10:09 51°14.374 2°50.803 -999 -999 -999 -999 -999
2007-04-17 10:10 51°14.321 2°50.846 -999 -999 -999 -999 -999
2007-04-17 10:11 51°14.265 2°50.813 -999 -999 -999 -999 -999
2007-04-17 10:12 51°14.216 2°50.742 -999 -999 -999 -999 -999
2007-04-17 10:13 51°14.17 2°50.662 -999 -999 -999 -999 -999
2007-04-17 10:14 51°14.126 2°50.594 -999 -999 -999 -999 -999
2007-04-17 10:15 51°14.084 2°50.542 -999 -999 -999 -999 -999
2007-04-17 10:16 51°14.045 2°50.495 -999 -999 -999 -999 -999
2007-04-17 10:17 51°14.007 2°50.45 -999 -999 -999 -999 -999
2007-04-17 10:18 51°13.975 2°50.405 -999 -999 -999 -999 -999
2007-04-17 10:19 51°13.964 2°50.352 -999 -999 -999 -999 -999
2007-04-17 10:20 51°13.972 2°50.301 -999 -999 -999 -999 -999
2007-04-17 10:21 51°13.991 2°50.261 -999 -999 -999 -999 -999
2007-04-17 10:22 51°14.019 2°50.235 -999 -999 -999 -999 -999
2007-04-17 10:23 51°14.053 2°50.233 -999 -999 -999 -999 -999
2007-04-17 10:24 51°14.086 2°50.26 -999 -999 -999 -999 -999
2007-04-17 10:25 51°14.11 2°50.319 -999 -999 -999 -999 -999
2007-04-17 10:26 51°14.132 2°50.396 -999 -999 -999 -999 -999
2007-04-17 10:27 51°14.159 2°50.482 -999 -999 -999 -999 -999
2007-04-17 10:28 51°14.181 2°50.581 -999 -999 -999 -999 -999
2007-04-17 10:29 51°14.205 2°50.677 -999 -999 -999 -999 -999
2007-04-17 10:30 51°14.233 2°50.771 -999 -999 -999 -999 -999
2007-04-17 10:31 51°14.261 2°50.867 -999 -999 -999 -999 -999
2007-04-17 10:32 51°14.289 2°50.963 -999 -999 -999 -999 -999
2007-04-17 10:33 51°14.316 2°51.052 -999 -999 -999 -999 -999
2007-04-17 10:34 51°14.339 2°51.134 -999 -999 -999 -999 -999
2007-04-17 10:35 51°14.359 2°51.212 -999 -999 -999 -999 -999
2007-04-17 10:36 51°14.379 2°51.289 -999 -999 -999 -999 -999
2007-04-17 10:37 51°14.401 2°51.367 -999 -999 -999 -999 -999
2007-04-17 10:38 51°14.419 2°51.448 -999 -999 -999 -999 -999
2007-04-17 10:39 51°14.426 2°51.535 -999 -999 -999 -999 -999
2007-04-17 10:40 51°14.423 2°51.62 -999 -999 -999 -999 -999
2007-04-17 10:41 51°14.404 2°51.702 -999 -999 -999 -999 -999
2007-04-17 10:42 51°14.372 2°51.744 -999 -999 -999 -999 -999
2007-04-17 10:43 51°14.35 2°51.772 -999 -999 -999 -999 -999
2007-04-17 10:44 51°14.334 2°51.804 -999 -999 -999 -999 -999
2007-04-17 10:45 51°14.323 2°51.84 -999 -999 -999 -999 -999
2007-04-17 10:46 51°14.319 2°51.88 -999 -999 -999 -999 -999
2007-04-17 10:47 51°14.319 2°51.922 -999 -999 -999 -999 -999
2007-04-17 10:48 51°14.31 2°51.979 -999 -999 -999 -999 -999
2007-04-17 10:49 51°14.263 2°51.983 -999 -999 -999 -999 -999
2007-04-17 10:50 51°14.282 2°51.9 -999 -999 -999 -999 -999
2007-04-17 10:51 51°14.339 2°51.783 -999 -999 -999 -999 -999
2007-04-17 10:52 51°14.393 2°51.587 -999 -999 -999 -999 -999
2007-04-17 10:53 51°14.39 2°51.49 -999 -999 -999 -999 -999
2007-04-17 10:54 51°14.386 2°51.494 -999 -999 -999 -999 -999
2007-04-17 10:55 51°14.381 2°51.501 -999 -999 -999 -999 -999
2007-04-17 10:56 51°14.379 2°51.511 -999 -999 -999 -999 -999
2007-04-17 10:57 51°14.38 2°51.521 -999 -999 -999 -999 -999
2007-04-17 10:58 51°14.384 2°51.534 -999 -999 -999 -999 -999
2007-04-17 10:59 51°14.39 2°51.547 -999 -999 -999 -999 -999
2007-04-17 11:00 51°14.398 2°51.565 -999 -999 -999 -999 -999
2007-04-17 11:01 51°14.406 2°51.587 -999 -999 -999 -999 -999
2007-04-17 11:02 51°14.416 2°51.61 -999 -999 -999 -999 -999
2007-04-17 11:03 51°14.426 2°51.633 -999 -999 -999 -999 -999
2007-04-17 11:04 51°14.441 2°51.645 -999 -999 -999 -999 -999
2007-04-17 11:05 51°14.465 2°51.635 -999 -999 -999 -999 -999
2007-04-17 11:06 51°14.487 2°51.609 -999 -999 -999 -999 -999
2007-04-17 11:07 51°14.512 2°51.582 -999 -999 -999 -999 -999
2007-04-17 11:08 51°14.54 2°51.569 -999 -999 -999 -999 -999
2007-04-17 11:09 51°14.564 2°51.573 -999 -999 -999 -999 -999
2007-04-17 11:10 51°14.584 2°51.587 -999 -999 -999 -999 -999
2007-04-17 11:11 51°14.6 2°51.608 -999 -999 -999 -999 -999
2007-04-17 11:12 51°14.623 2°51.6 -999 -999 -999 -999 -999
2007-04-17 11:13 51°14.608 2°51.512 -999 -999 -999 -999 -999
2007-04-17 11:14 51°14.543 2°51.259 -999 -999 -999 -999 -999
2007-04-17 11:15 51°14.442 2°51.001 -999 -999 -999 -999 -999
2007-04-17 11:16 51°14.342 2°50.739 -999 -999 -999 -999 -999
2007-04-17 11:17 51°14.243 2°50.477 -999 -999 -999 -999 -999
2007-04-17 11:18 51°14.145 2°50.215 -999 -999 -999 -999 -999
2007-04-17 11:19 51°14.047 2°49.954 -999 -999 -999 -999 -999
2007-04-17 11:20 51°13.948 2°49.694 -999 -999 -999 -999 -999
2007-04-17 11:21 51°13.852 2°49.435 -999 -999 -999 -999 -999
2007-04-17 11:22 51°13.753 2°49.178 -999 -999 -999 -999 -999
2007-04-17 11:23 51°13.655 2°48.92 -999 -999 -999 -999 -999
2007-04-17 11:24 51°13.558 2°48.659 -999 -999 -999 -999 -999
2007-04-17 11:25 51°13.46 2°48.399 -999 -999 -999 -999 -999
2007-04-17 11:26 51°13.361 2°48.139 -999 -999 -999 -999 -999
2007-04-17 11:27 51°13.264 2°47.876 -999 -999 -999 -999 -999
2007-04-17 11:28 51°13.164 2°47.613 -999 -999 -999 -999 -999
2007-04-17 11:29 51°13.064 2°47.351 -999 -999 -999 -999 -999
2007-04-17 11:30 51°12.99 2°47.067 -999 -999 -999 -999 -999
2007-04-17 11:31 51°12.921 2°46.777 -999 -999 -999 -999 -999
2007-04-17 11:32 51°12.853 2°46.485 -999 -999 -999 -999 -999
2007-04-17 11:33 51°12.783 2°46.194 -999 -999 -999 -999 -999
2007-04-17 11:34 51°12.715 2°45.9 -999 -999 -999 -999 -999
2007-04-17 11:35 51°12.658 2°45.743 -999 -999 -999 -999 -999
2007-04-17 11:36 51°12.608 2°45.714 -999 -999 -999 -999 -999
2007-04-17 11:37 51°12.573 2°45.661 -999 -999 -999 -999 -999
2007-04-17 11:38 51°12.592 2°45.575 -999 -999 -999 -999 -999
2007-04-17 11:39 51°12.627 2°45.518 -999 -999 -999 -999 -999
2007-04-17 11:40 51°12.663 2°45.456 -999 -999 -999 -999 -999
2007-04-17 11:41 51°12.699 2°45.394 -999 -999 -999 -999 -999
2007-04-17 11:42 51°12.706 2°45.329 -999 -999 -999 -999 -999
2007-04-17 11:43 51°12.691 2°45.236 -999 -999 -999 -999 -999
2007-04-17 11:44 51°12.683 2°45.148 -999 -999 -999 -999 -999
2007-04-17 11:45 51°12.652 2°45.083 -999 -999 -999 -999 -999
2007-04-17 11:46 51°12.618 2°45.016 -999 -999 -999 -999 -999
2007-04-17 11:47 51°12.59 2°44.942 -999 -999 -999 -999 -999
2007-04-17 11:48 51°12.554 2°44.873 -999 -999 -999 -999 -999
2007-04-17 11:49 51°12.516 2°44.808 -999 -999 -999 -999 -999
2007-04-17 11:50 51°12.481 2°44.738 -999 -999 -999 -999 -999
2007-04-17 11:51 51°12.449 2°44.663 -999 -999 -999 -999 -999
2007-04-17 11:52 51°12.419 2°44.585 -999 -999 -999 -999 -999
2007-04-17 11:53 51°12.383 2°44.513 -999 -999 -999 -999 -999
2007-04-17 11:54 51°12.352 2°44.437 -999 -999 -999 -999 -999
2007-04-17 11:55 51°12.324 2°44.361 -999 -999 -999 -999 -999
2007-04-17 11:56 51°12.291 2°44.29 -999 -999 -999 -999 -999
2007-04-17 11:57 51°12.259 2°44.219 -999 -999 -999 -999 -999
2007-04-17 11:58 51°12.228 2°44.146 -999 -999 -999 -999 -999
2007-04-17 11:59 51°12.198 2°44.069 -999 -999 -999 -999 -999
2007-04-17 12:00 51°12.173 2°43.99 -999 -999 -999 -999 -999
2007-04-17 12:01 51°12.162 2°43.901 -999 -999 -999 -999 -999
2007-04-17 12:02 51°12.158 2°43.818 -999 -999 -999 -999 -999
2007-04-17 12:03 51°12.192 2°43.746 -999 -999 -999 -999 -999
2007-04-17 12:04 51°12.252 2°43.738 -999 -999 -999 -999 -999
2007-04-17 12:05 51°12.298 2°43.781 -999 -999 -999 -999 -999
2007-04-17 12:06 51°12.331 2°43.824 -999 -999 -999 -999 -999
2007-04-17 12:07 51°12.36 2°43.865 -999 -999 -999 -999 -999
2007-04-17 12:08 51°12.39 2°43.965 -999 -999 -999 -999 -999
2007-04-17 12:09 51°12.351 2°44.099 -999 -999 -999 -999 -999
2007-04-17 12:10 51°12.292 2°44.259 -999 -999 -999 -999 -999
2007-04-17 12:11 51°12.286 2°44.332 -999 -999 -999 -999 -999
2007-04-17 12:12 51°12.293 2°44.358 -999 -999 -999 -999 -999
2007-04-17 12:13 51°12.298 2°44.386 -999 -999 -999 -999 -999
2007-04-17 12:14 51°12.303 2°44.415 -999 -999 -999 -999 -999
2007-04-17 12:15 51°12.307 2°44.448 -999 -999 -999 -999 -999
2007-04-17 12:16 51°12.31 2°44.479 -999 -999 -999 -999 -999
2007-04-17 12:17 51°12.313 2°44.514 -999 -999 -999 -999 -999
2007-04-17 12:18 51°12.32 2°44.588 -999 -999 -999 -999 -999
2007-04-17 12:19 51°12.389 2°44.832 -999 -999 -999 -999 -999
2007-04-17 12:20 51°12.486 2°45.187 -999 -999 -999 -999 -999
2007-04-17 12:21 51°12.586 2°45.533 -999 -999 -999 -999 -999
2007-04-17 12:22 51°12.699 2°45.882 -999 -999 -999 -999 -999
2007-04-17 12:23 51°12.812 2°46.225 -999 -999 -999 -999 -999
2007-04-17 12:24 51°12.924 2°46.567 -999 -999 -999 -999 -999
2007-04-17 12:25 51°13.034 2°46.904 -999 -999 -999 -999 -999
2007-04-17 12:26 51°13.146 2°47.248 -999 -999 -999 -999 -999
2007-04-17 12:27 51°13.259 2°47.589 -999 -999 -999 -999 -999
2007-04-17 12:28 51°13.371 2°47.928 -999 -999 -999 -999 -999
2007-04-17 12:29 51°13.484 2°48.267 -999 -999 -999 -999 -999
2007-04-17 12:30 51°13.599 2°48.607 -999 -999 -999 -999 -999
2007-04-17 12:31 51°13.715 2°48.945 -999 -999 -999 -999 -999
2007-04-17 12:32 51°13.83 2°49.286 -999 -999 -999 -999 -999
2007-04-17 12:33 51°13.942 2°49.63 -999 -999 -999 -999 -999
2007-04-17 12:34 51°14.042 2°49.983 -999 -999 -999 -999 -999
2007-04-17 12:35 51°14.138 2°50.339 -999 -999 -999 -999 -999
2007-04-17 12:36 51°14.234 2°50.693 -999 -999 -999 -999 -999
2007-04-17 12:37 51°14.314 2°51.058 -999 -999 -999 -999 -999
2007-04-17 12:38 51°14.383 2°51.427 -999 -999 -999 -999 -999
2007-04-17 12:39 51°14.441 2°51.793 -999 -999 -999 -999 -999
2007-04-17 12:40 51°14.497 2°52.169 -999 -999 -999 -999 -999
2007-04-17 12:41 51°14.556 2°52.556 -999 -999 -999 -999 -999
2007-04-17 12:42 51°14.599 2°52.924 -999 -999 -999 -999 -999
2007-04-17 12:43 51°14.616 2°53.311 -999 -999 -999 -999 -999
2007-04-17 12:44 51°14.611 2°53.698 -999 -999 -999 -999 -999
2007-04-17 12:45 51°14.577 2°54.083 -999 -999 -999 -999 -999
2007-04-17 12:46 51°14.514 2°54.452 -999 -999 -999 -999 -999
2007-04-17 12:47 51°14.436 2°54.821 -999 -999 -999 -999 -999
2007-04-17 12:48 51°14.326 2°55.14 -999 -999 -999 -999 -999
2007-04-17 12:49 51°14.199 2°55.347 -999 -999 -999 -999 -999
2007-04-17 12:50 51°14.084 2°55.441 -999 -999 -999 -999 -999
2007-04-17 12:51 51°13.975 2°55.523 -999 -999 -999 -999 -999
2007-04-17 12:52 51°13.89 2°55.584 -999 -999 -999 -999 -999
2007-04-17 12:53 51°13.803 2°55.656 -999 -999 -999 -999 -999
2007-04-17 12:54 51°13.733 2°55.744 -999 -999 -999 -999 -999
2007-04-17 12:55 51°13.679 2°55.841 -999 -999 -999 -999 -999
2007-04-17 12:56 51°13.635 2°55.938 -999 -999 -999 -999 -999
2007-04-17 12:57 51°13.607 2°56.015 -999 -999 -999 -999 -999
2007-04-17 12:58 51°13.593 2°56.079 -999 -999 -999 -999 -999
2007-04-17 12:59 51°13.586 2°56.115 -999 -999 -999 -999 -999
2007-04-17 13:00 51°13.583 2°56.127 -999 -999 -999 -999 -999